Year,Month,Day,Hour,Minute,Value (Times are PST for windspeed in km/hr)
2006,01,31,00,00,2.40
2006,01,31,00,01,2.90
2006,01,31,00,02,3.20
2006,01,31,00,03,3.20
2006,01,31,00,04,2.30
2006,01,31,00,05,4.50
2006,01,31,00,06,4.60
2006,01,31,00,07,4.10
2006,01,31,00,08,4.40
2006,01,31,00,09,3.80
2006,01,31,00,10,7.90
2006,01,31,00,11,4.20
2006,01,31,00,12,3.10
2006,01,31,00,13,6.00
2006,01,31,00,14,3.50
2006,01,31,00,15,3.10
2006,01,31,00,16,0.60
2006,01,31,00,17,0.00
2006,01,31,00,18,3.80
2006,01,31,00,19,4.80
2006,01,31,00,20,2.30
2006,01,31,00,21,3.70
2006,01,31,00,22,2.20
2006,01,31,00,23,1.60
2006,01,31,00,24,3.30
2006,01,31,00,25,2.80
2006,01,31,00,26,3.00
2006,01,31,00,27,4.80
2006,01,31,00,28,4.60
2006,01,31,00,29,6.20
2006,01,31,00,30,3.50
2006,01,31,00,31,3.40
2006,01,31,00,32,4.60
2006,01,31,00,33,6.00
2006,01,31,00,34,7.70
2006,01,31,00,35,5.10
2006,01,31,00,36,4.70
2006,01,31,00,37,5.50
2006,01,31,00,38,4.30
2006,01,31,00,39,4.70
2006,01,31,00,40,4.50
2006,01,31,00,41,4.40
2006,01,31,00,42,4.40
2006,01,31,00,43,4.80
2006,01,31,00,44,4.30
2006,01,31,00,45,5.50
2006,01,31,00,46,6.00
2006,01,31,00,47,2.70
2006,01,31,00,48,6.40
2006,01,31,00,49,4.80
2006,01,31,00,50,3.20
2006,01,31,00,51,5.10
2006,01,31,00,52,3.10
2006,01,31,00,53,10.50
2006,01,31,00,54,8.10
2006,01,31,00,55,8.50
2006,01,31,00,56,6.80
2006,01,31,00,57,7.40
2006,01,31,00,58,7.30
2006,01,31,00,59,2.80
2006,01,31,01,00,5.00
2006,01,31,01,01,5.20
2006,01,31,01,02,3.90
2006,01,31,01,03,5.60
2006,01,31,01,04,4.80
2006,01,31,01,05,4.70
2006,01,31,01,06,4.90
2006,01,31,01,07,6.60
2006,01,31,01,08,7.20
2006,01,31,01,09,7.00
2006,01,31,01,10,7.40
2006,01,31,01,11,8.90
2006,01,31,01,12,7.80
2006,01,31,01,13,9.50
2006,01,31,01,14,11.10
2006,01,31,01,15,5.50
2006,01,31,01,16,8.30
2006,01,31,01,17,7.20
2006,01,31,01,18,8.40
2006,01,31,01,19,7.60
2006,01,31,01,20,9.00
2006,01,31,01,21,8.90
2006,01,31,01,22,9.90
2006,01,31,01,23,8.80
2006,01,31,01,24,8.70
2006,01,31,01,25,15.00
2006,01,31,01,26,14.80
2006,01,31,01,27,9.30
2006,01,31,01,28,9.00
2006,01,31,01,29,11.30
2006,01,31,01,30,8.70
2006,01,31,01,31,9.80
2006,01,31,01,32,12.50
2006,01,31,01,33,12.00
2006,01,31,01,34,10.90
2006,01,31,01,35,13.00
2006,01,31,01,36,11.30
2006,01,31,01,37,12.50
2006,01,31,01,38,12.60
2006,01,31,01,39,8.80
2006,01,31,01,40,9.90
2006,01,31,01,41,10.60
2006,01,31,01,42,16.20
2006,01,31,01,43,14.00
2006,01,31,01,44,11.80
2006,01,31,01,45,15.40
2006,01,31,01,46,15.70
2006,01,31,01,47,10.70
2006,01,31,01,48,9.10
2006,01,31,01,49,12.60
2006,01,31,01,50,8.00
2006,01,31,01,51,8.60
2006,01,31,01,52,6.10
2006,01,31,01,53,7.80
2006,01,31,01,54,7.50
2006,01,31,01,55,8.10
2006,01,31,01,56,2.90
2006,01,31,01,57,4.30
2006,01,31,01,58,5.60
2006,01,31,01,59,5.20
2006,01,31,02,00,6.40
2006,01,31,02,01,6.60
2006,01,31,02,02,6.80
2006,01,31,02,03,8.50
2006,01,31,02,04,7.70
2006,01,31,02,05,7.20
2006,01,31,02,06,11.30
2006,01,31,02,07,8.60
2006,01,31,02,08,5.80
2006,01,31,02,09,5.00
2006,01,31,02,10,5.80
2006,01,31,02,11,6.80
2006,01,31,02,12,6.80
2006,01,31,02,13,5.50
2006,01,31,02,14,8.10
2006,01,31,02,15,6.30
2006,01,31,02,16,4.80
2006,01,31,02,17,5.40
2006,01,31,02,18,8.10
2006,01,31,02,19,7.10
2006,01,31,02,20,8.60
2006,01,31,02,21,8.40
2006,01,31,02,22,6.70
2006,01,31,02,23,5.40
2006,01,31,02,24,5.60
2006,01,31,02,25,5.80
2006,01,31,02,26,5.10
2006,01,31,02,27,4.90
2006,01,31,02,28,6.50
2006,01,31,02,29,3.70
2006,01,31,02,30,1.60
2006,01,31,02,31,3.90
2006,01,31,02,32,7.60
2006,01,31,02,33,6.20
2006,01,31,02,34,6.50
2006,01,31,02,35,4.30
2006,01,31,02,36,5.00
2006,01,31,02,37,4.80
2006,01,31,02,38,2.50
2006,01,31,02,39,4.70
2006,01,31,02,40,5.90
2006,01,31,02,41,5.90
2006,01,31,02,42,5.50
2006,01,31,02,43,10.00
2006,01,31,02,44,7.50
2006,01,31,02,45,7.40
2006,01,31,02,46,3.10
2006,01,31,02,47,3.70
2006,01,31,02,48,5.40
2006,01,31,02,49,5.80
2006,01,31,02,50,6.20
2006,01,31,02,51,5.60
2006,01,31,02,52,5.30
2006,01,31,02,53,6.00
2006,01,31,02,54,7.40
2006,01,31,02,55,7.00
2006,01,31,02,56,8.00
2006,01,31,02,57,7.60
2006,01,31,02,58,7.00
2006,01,31,02,59,7.90
2006,01,31,03,00,6.40
2006,01,31,03,01,10.30
2006,01,31,03,02,8.20
2006,01,31,03,03,8.90
2006,01,31,03,04,8.40
2006,01,31,03,05,9.50
2006,01,31,03,06,9.10
2006,01,31,03,07,11.60
2006,01,31,03,08,7.10
2006,01,31,03,09,7.20
2006,01,31,03,10,12.20
2006,01,31,03,11,10.00
2006,01,31,03,12,7.30
2006,01,31,03,13,6.80
2006,01,31,03,14,8.20
2006,01,31,03,15,7.80
2006,01,31,03,16,5.80
2006,01,31,03,17,9.90
2006,01,31,03,18,8.50
2006,01,31,03,19,8.20
2006,01,31,03,20,8.10
2006,01,31,03,21,7.40
2006,01,31,03,22,7.50
2006,01,31,03,23,9.00
2006,01,31,03,24,7.30
2006,01,31,03,25,8.10
2006,01,31,03,26,6.50
2006,01,31,03,27,6.50
2006,01,31,03,28,7.70
2006,01,31,03,29,8.20
2006,01,31,03,30,7.90
2006,01,31,03,31,5.80
2006,01,31,03,32,8.20
2006,01,31,03,33,7.20
2006,01,31,03,34,8.20
2006,01,31,03,35,8.10
2006,01,31,03,36,6.90
2006,01,31,03,37,7.30
2006,01,31,03,38,6.70
2006,01,31,03,39,6.50
2006,01,31,03,40,6.70
2006,01,31,03,41,3.30
2006,01,31,03,42,4.80
2006,01,31,03,43,5.10
2006,01,31,03,44,4.80
2006,01,31,03,45,4.80
2006,01,31,03,46,4.70
2006,01,31,03,47,6.00
2006,01,31,03,48,3.70
2006,01,31,03,49,4.70
2006,01,31,03,50,4.30
2006,01,31,03,51,3.90
2006,01,31,03,52,3.50
2006,01,31,03,53,1.40
2006,01,31,03,54,2.20
2006,01,31,03,55,1.00
2006,01,31,03,56,3.40
2006,01,31,03,57,3.20
2006,01,31,03,58,3.20
2006,01,31,03,59,3.20
2006,01,31,04,00,5.30
2006,01,31,04,01,3.70
2006,01,31,04,02,5.70
2006,01,31,04,03,4.10
2006,01,31,04,04,5.70
2006,01,31,04,05,6.40
2006,01,31,04,06,6.30
2006,01,31,04,07,3.80
2006,01,31,04,08,4.50
2006,01,31,04,09,6.30
2006,01,31,04,10,5.30
2006,01,31,04,11,6.60
2006,01,31,04,12,6.30
2006,01,31,04,13,4.30
2006,01,31,04,14,3.50
2006,01,31,04,15,4.40
2006,01,31,04,16,6.90
2006,01,31,04,17,4.70
2006,01,31,04,18,4.20
2006,01,31,04,19,5.20
2006,01,31,04,20,5.70
2006,01,31,04,21,6.40
2006,01,31,04,22,4.40
2006,01,31,04,23,4.80
2006,01,31,04,24,4.70
2006,01,31,04,25,4.70
2006,01,31,04,26,3.40
2006,01,31,04,27,5.10
2006,01,31,04,28,5.90
2006,01,31,04,29,3.00
2006,01,31,04,30,4.90
2006,01,31,04,31,6.40
2006,01,31,04,32,8.20
2006,01,31,04,33,7.60
2006,01,31,04,34,6.00
2006,01,31,04,35,5.10
2006,01,31,04,36,6.00
2006,01,31,04,37,6.20
2006,01,31,04,38,5.90
2006,01,31,04,39,6.40
2006,01,31,04,40,7.40
2006,01,31,04,41,7.40
2006,01,31,04,42,7.00
2006,01,31,04,43,8.10
2006,01,31,04,44,8.30
2006,01,31,04,45,7.30
2006,01,31,04,46,7.00
2006,01,31,04,47,8.50
2006,01,31,04,48,8.10
2006,01,31,04,49,11.10
2006,01,31,04,50,9.80
2006,01,31,04,51,9.40
2006,01,31,04,52,8.40
2006,01,31,04,53,10.60
2006,01,31,04,54,8.50
2006,01,31,04,55,8.30
2006,01,31,04,56,8.60
2006,01,31,04,57,11.80
2006,01,31,04,58,7.80
2006,01,31,04,59,8.00
2006,01,31,05,00,6.40
2006,01,31,05,01,7.00
2006,01,31,05,02,7.50
2006,01,31,05,03,6.40
2006,01,31,05,04,7.50
2006,01,31,05,05,9.30
2006,01,31,05,06,9.10
2006,01,31,05,07,8.30
2006,01,31,05,08,7.00
2006,01,31,05,09,6.20
2006,01,31,05,10,4.20
2006,01,31,05,11,5.60
2006,01,31,05,12,7.20
2006,01,31,05,13,8.60
2006,01,31,05,14,8.10
2006,01,31,05,15,7.50
2006,01,31,05,16,3.30
2006,01,31,05,17,4.70
2006,01,31,05,18,6.20
2006,01,31,05,19,5.80
2006,01,31,05,20,5.90
2006,01,31,05,21,7.50
2006,01,31,05,22,8.70
2006,01,31,05,23,7.20
2006,01,31,05,24,7.00
2006,01,31,05,25,10.50
2006,01,31,05,26,7.90
2006,01,31,05,27,5.70
2006,01,31,05,28,6.40
2006,01,31,05,29,7.70
2006,01,31,05,30,8.30
2006,01,31,05,31,11.20
2006,01,31,05,32,9.00
2006,01,31,05,33,9.60
2006,01,31,05,34,7.00
2006,01,31,05,35,7.50
2006,01,31,05,36,8.10
2006,01,31,05,37,5.60
2006,01,31,05,38,8.20
2006,01,31,05,39,7.20
2006,01,31,05,40,8.60
2006,01,31,05,41,6.10
2006,01,31,05,42,5.30
2006,01,31,05,43,9.60
2006,01,31,05,44,12.10
2006,01,31,05,45,11.10
2006,01,31,05,46,9.10
2006,01,31,05,47,8.60
2006,01,31,05,48,10.50
2006,01,31,05,49,9.60
2006,01,31,05,50,9.50
2006,01,31,05,51,11.10
2006,01,31,05,52,7.40
2006,01,31,05,53,6.30
2006,01,31,05,54,7.80
2006,01,31,05,55,6.00
2006,01,31,05,56,7.10
2006,01,31,05,57,7.20
2006,01,31,05,58,6.40
2006,01,31,05,59,6.70
2006,01,31,06,00,5.40
2006,01,31,06,01,7.80
2006,01,31,06,02,9.00
2006,01,31,06,03,9.00
2006,01,31,06,04,5.80
2006,01,31,06,05,7.20
2006,01,31,06,06,6.50
2006,01,31,06,07,4.60
2006,01,31,06,08,6.00
2006,01,31,06,09,7.00
2006,01,31,06,10,3.90
2006,01,31,06,11,4.40
2006,01,31,06,12,4.90
2006,01,31,06,13,3.30
2006,01,31,06,14,3.40
2006,01,31,06,15,2.40
2006,01,31,06,16,3.80
2006,01,31,06,17,3.00
2006,01,31,06,18,3.20
2006,01,31,06,19,4.40
2006,01,31,06,20,4.30
2006,01,31,06,21,4.20
2006,01,31,06,22,3.40
2006,01,31,06,23,2.00
2006,01,31,06,24,1.50
2006,01,31,06,25,2.00
2006,01,31,06,26,1.10
2006,01,31,06,27,2.10
2006,01,31,06,28,2.60
2006,01,31,06,29,0.90
2006,01,31,06,30,1.90
2006,01,31,06,31,1.60
2006,01,31,06,32,2.00
2006,01,31,06,33,2.90
2006,01,31,06,34,2.40
2006,01,31,06,35,3.90
2006,01,31,06,36,6.00
2006,01,31,06,37,3.60
2006,01,31,06,38,4.10
2006,01,31,06,39,6.60
2006,01,31,06,40,5.70
2006,01,31,06,41,4.20
2006,01,31,06,42,4.40
2006,01,31,06,43,8.20
2006,01,31,06,44,7.70
2006,01,31,06,45,9.20
2006,01,31,06,46,6.90
2006,01,31,06,47,7.60
2006,01,31,06,48,7.70
2006,01,31,06,49,9.70
2006,01,31,06,50,8.30
2006,01,31,06,51,8.70
2006,01,31,06,52,7.00
2006,01,31,06,53,7.20
2006,01,31,06,54,8.20
2006,01,31,06,55,6.30
2006,01,31,06,56,10.20
2006,01,31,06,57,8.20
2006,01,31,06,58,6.10
2006,01,31,06,59,7.20
2006,01,31,07,00,5.70
2006,01,31,07,01,6.20
2006,01,31,07,02,6.90
2006,01,31,07,03,6.50
2006,01,31,07,04,5.80
2006,01,31,07,05,7.10
2006,01,31,07,06,7.60
2006,01,31,07,07,6.10
2006,01,31,07,08,4.90
2006,01,31,07,09,5.80
2006,01,31,07,10,7.10
2006,01,31,07,11,5.60
2006,01,31,07,12,5.80
2006,01,31,07,13,4.70
2006,01,31,07,14,5.10
2006,01,31,07,15,4.40
2006,01,31,07,16,5.80
2006,01,31,07,17,8.10
2006,01,31,07,18,8.80
2006,01,31,07,19,5.90
2006,01,31,07,20,4.70
2006,01,31,07,21,6.20
2006,01,31,07,22,5.70
2006,01,31,07,23,3.70
2006,01,31,07,24,3.00
2006,01,31,07,25,4.70
2006,01,31,07,26,5.60
2006,01,31,07,27,5.70
2006,01,31,07,28,5.80
2006,01,31,07,29,6.60
2006,01,31,07,30,5.30
2006,01,31,07,31,4.70
2006,01,31,07,32,4.90
2006,01,31,07,33,6.90
2006,01,31,07,34,11.90
2006,01,31,07,35,15.70
2006,01,31,07,36,11.70
2006,01,31,07,37,9.60
2006,01,31,07,38,7.00
2006,01,31,07,39,7.80
2006,01,31,07,40,14.30
2006,01,31,07,41,10.70
2006,01,31,07,42,10.10
2006,01,31,07,43,7.80
2006,01,31,07,44,11.30
2006,01,31,07,45,10.50
2006,01,31,07,46,9.30
2006,01,31,07,47,9.60
2006,01,31,07,48,13.20
2006,01,31,07,49,10.90
2006,01,31,07,50,8.70
2006,01,31,07,51,9.50
2006,01,31,07,52,16.70
2006,01,31,07,53,13.60
2006,01,31,07,54,16.10
2006,01,31,07,55,16.10
2006,01,31,07,56,15.60
2006,01,31,07,57,10.70
2006,01,31,07,58,10.90
2006,01,31,07,59,12.90
2006,01,31,08,00,12.80
2006,01,31,08,01,14.20
2006,01,31,08,02,15.90
2006,01,31,08,03,16.90
2006,01,31,08,04,15.70
2006,01,31,08,05,14.30
2006,01,31,08,06,16.40
2006,01,31,08,07,18.90
2006,01,31,08,08,14.70
2006,01,31,08,09,19.40
2006,01,31,08,10,16.90
2006,01,31,08,11,20.00
2006,01,31,08,12,17.50
2006,01,31,08,13,15.90
2006,01,31,08,14,16.10
2006,01,31,08,15,13.90
2006,01,31,08,16,14.70
2006,01,31,08,17,13.10
2006,01,31,08,18,18.20
2006,01,31,08,19,15.10
2006,01,31,08,20,12.20
2006,01,31,08,21,15.70
2006,01,31,08,22,16.60
2006,01,31,08,23,18.20
2006,01,31,08,24,17.70
2006,01,31,08,25,19.30
2006,01,31,08,26,21.80
2006,01,31,08,27,17.70
2006,01,31,08,28,14.20
2006,01,31,08,29,16.30
2006,01,31,08,30,12.90
2006,01,31,08,31,16.10
2006,01,31,08,32,21.70
2006,01,31,08,33,16.80
2006,01,31,08,34,15.50
2006,01,31,08,35,11.30
2006,01,31,08,36,9.20
2006,01,31,08,37,13.70
2006,01,31,08,38,13.70
2006,01,31,08,39,17.20
2006,01,31,08,40,12.70
2006,01,31,08,41,11.00
2006,01,31,08,42,10.10
2006,01,31,08,43,10.40
2006,01,31,08,44,10.00
2006,01,31,08,45,10.00
2006,01,31,08,46,8.60
2006,01,31,08,47,10.00
2006,01,31,08,48,11.50
2006,01,31,08,49,11.50
2006,01,31,08,50,12.70
2006,01,31,08,51,11.70
2006,01,31,08,52,8.50
2006,01,31,08,53,8.10
2006,01,31,08,54,8.10
2006,01,31,08,55,8.60
2006,01,31,08,56,11.30
2006,01,31,08,57,14.20
2006,01,31,08,58,13.50
2006,01,31,08,59,11.40
2006,01,31,09,00,12.60
2006,01,31,09,01,9.40
2006,01,31,09,02,7.50
2006,01,31,09,03,10.10
2006,01,31,09,04,13.70
2006,01,31,09,05,8.10
2006,01,31,09,06,10.90
2006,01,31,09,07,10.30
2006,01,31,09,08,9.60
2006,01,31,09,09,8.90
2006,01,31,09,10,6.50
2006,01,31,09,11,8.10
2006,01,31,09,12,5.30
2006,01,31,09,13,8.40
2006,01,31,09,14,10.30
2006,01,31,09,15,9.00
2006,01,31,09,16,7.30
2006,01,31,09,17,8.10
2006,01,31,09,18,11.20
2006,01,31,09,19,8.10
2006,01,31,09,20,8.10
2006,01,31,09,21,8.10
2006,01,31,09,22,6.40
2006,01,31,09,23,3.00
2006,01,31,09,24,5.10
2006,01,31,09,25,2.30
2006,01,31,09,26,3.50
2006,01,31,09,27,5.80
2006,01,31,09,28,7.50
2006,01,31,09,29,5.70
2006,01,31,09,30,6.00
2006,01,31,09,31,7.20
2006,01,31,09,32,9.90
2006,01,31,09,33,7.30
2006,01,31,09,34,7.60
2006,01,31,09,35,4.60
2006,01,31,09,36,10.10
2006,01,31,09,37,9.30
2006,01,31,09,38,9.30
2006,01,31,09,39,11.70
2006,01,31,09,40,9.30
2006,01,31,09,41,5.80
2006,01,31,09,42,6.00
2006,01,31,09,43,11.50
2006,01,31,09,44,14.10
2006,01,31,09,45,11.20
2006,01,31,09,46,10.40
2006,01,31,09,47,9.20
2006,01,31,09,48,6.40
2006,01,31,09,49,15.20
2006,01,31,09,50,10.60
2006,01,31,09,51,14.20
2006,01,31,09,52,19.20
2006,01,31,09,53,14.70
2006,01,31,09,54,15.40
2006,01,31,09,55,18.70
2006,01,31,09,56,13.70
2006,01,31,09,57,20.80
2006,01,31,09,58,20.30
2006,01,31,09,59,18.80
2006,01,31,10,00,21.00
2006,01,31,10,01,13.60
2006,01,31,10,02,18.80
2006,01,31,10,03,17.50
2006,01,31,10,04,14.10
2006,01,31,10,05,15.50
2006,01,31,10,06,18.10
2006,01,31,10,07,16.90
2006,01,31,10,08,21.10
2006,01,31,10,09,21.70
2006,01,31,10,10,15.90
2006,01,31,10,11,16.10
2006,01,31,10,12,21.20
2006,01,31,10,13,21.30
2006,01,31,10,14,15.10
2006,01,31,10,15,20.50
2006,01,31,10,16,19.40
2006,01,31,10,17,19.40
2006,01,31,10,18,19.60
2006,01,31,10,19,18.90
2006,01,31,10,20,21.20
2006,01,31,10,21,18.30
2006,01,31,10,22,17.10
2006,01,31,10,23,14.60
2006,01,31,10,24,13.00
2006,01,31,10,25,14.10
2006,01,31,10,26,12.80
2006,01,31,10,27,12.10
2006,01,31,10,28,10.50
2006,01,31,10,29,8.10
2006,01,31,10,30,8.10
2006,01,31,10,31,5.60
2006,01,31,10,32,4.40
2006,01,31,10,33,6.80
2006,01,31,10,34,5.00
2006,01,31,10,35,6.90
2006,01,31,10,36,5.50
2006,01,31,10,37,3.00
2006,01,31,10,38,6.50
2006,01,31,10,39,7.40
2006,01,31,10,40,5.00
2006,01,31,10,41,4.50
2006,01,31,10,42,6.40
2006,01,31,10,43,9.90
2006,01,31,10,44,8.60
2006,01,31,10,45,12.00
2006,01,31,10,46,10.30
2006,01,31,10,47,8.10
2006,01,31,10,48,7.00
2006,01,31,10,49,4.50
2006,01,31,10,50,6.00
2006,01,31,10,51,7.20
2006,01,31,10,52,9.60
2006,01,31,10,53,9.60
2006,01,31,10,54,9.60
2006,01,31,10,55,5.80
2006,01,31,10,56,6.00
2006,01,31,10,57,7.20
2006,01,31,10,58,3.00
2006,01,31,10,59,3.50
2006,01,31,11,00,5.70
2006,01,31,11,01,8.10
2006,01,31,11,02,10.10
2006,01,31,11,03,16.00
2006,01,31,11,04,7.00
2006,01,31,11,05,7.60
2006,01,31,11,06,6.90
2006,01,31,11,07,7.40
2006,01,31,11,08,12.90
2006,01,31,11,09,14.50
2006,01,31,11,10,7.80
2006,01,31,11,11,5.00
2006,01,31,11,12,3.10
2006,01,31,11,13,6.20
2006,01,31,11,14,9.80
2006,01,31,11,15,6.00
2006,01,31,11,16,10.50
2006,01,31,11,17,10.30
2006,01,31,11,18,6.20
2006,01,31,11,19,2.10
2006,01,31,11,20,0.70
2006,01,31,11,21,0.20
2006,01,31,11,22,2.30
2006,01,31,11,23,7.50
2006,01,31,11,24,5.70
2006,01,31,11,25,6.60
2006,01,31,11,26,4.30
2006,01,31,11,27,5.40
2006,01,31,11,28,4.80
2006,01,31,11,29,4.80
2006,01,31,11,30,5.50
2006,01,31,11,31,5.90
2006,01,31,11,32,3.20
2006,01,31,11,33,4.10
2006,01,31,11,34,1.10
2006,01,31,11,35,1.30
2006,01,31,11,36,3.80
2006,01,31,11,37,9.80
2006,01,31,11,38,8.00
2006,01,31,11,39,12.20
2006,01,31,11,40,8.20
2006,01,31,11,41,7.50
2006,01,31,11,42,8.10
2006,01,31,11,43,8.40
2006,01,31,11,44,18.80
2006,01,31,11,45,19.80
2006,01,31,11,46,9.20
2006,01,31,11,47,9.90
2006,01,31,11,48,12.90
2006,01,31,11,49,12.90
2006,01,31,11,50,12.90
2006,01,31,11,51,12.90
2006,01,31,11,52,10.90
2006,01,31,11,53,15.40
2006,01,31,11,54,10.40
2006,01,31,11,55,16.80
2006,01,31,11,56,12.20
2006,01,31,11,57,22.60
2006,01,31,11,58,17.70
2006,01,31,11,59,21.90
2006,01,31,12,00,22.50
2006,01,31,12,01,18.50
2006,01,31,12,02,17.90
2006,01,31,12,03,24.20
2006,01,31,12,04,23.30
2006,01,31,12,05,19.70
2006,01,31,12,06,23.60
2006,01,31,12,07,23.40
2006,01,31,12,08,23.30
2006,01,31,12,09,18.20
2006,01,31,12,10,16.90
2006,01,31,12,11,22.60
2006,01,31,12,12,24.10
2006,01,31,12,13,25.80
2006,01,31,12,14,26.30
2006,01,31,12,15,22.90
2006,01,31,12,16,24.00
2006,01,31,12,17,22.90
2006,01,31,12,18,22.70
2006,01,31,12,19,23.00
2006,01,31,12,20,21.00
2006,01,31,12,21,14.00
2006,01,31,12,22,13.80
2006,01,31,12,23,18.20
2006,01,31,12,24,16.20
2006,01,31,12,25,25.00
2006,01,31,12,26,26.00
2006,01,31,12,27,20.00
2006,01,31,12,28,26.70
2006,01,31,12,29,27.70
2006,01,31,12,30,21.60
2006,01,31,12,31,17.80
2006,01,31,12,32,20.20
2006,01,31,12,33,25.70
2006,01,31,12,34,23.20
2006,01,31,12,35,24.30
2006,01,31,12,36,27.60
2006,01,31,12,37,22.90
2006,01,31,12,38,20.30
2006,01,31,12,39,20.00
2006,01,31,12,40,28.90
2006,01,31,12,41,28.70
2006,01,31,12,42,31.60
2006,01,31,12,43,25.70
2006,01,31,12,44,14.50
2006,01,31,12,45,21.20
2006,01,31,12,46,29.90
2006,01,31,12,47,23.00
2006,01,31,12,48,23.80
2006,01,31,12,49,29.50
2006,01,31,12,50,23.80
2006,01,31,12,51,24.20
2006,01,31,12,52,32.40
2006,01,31,12,53,30.30
2006,01,31,12,54,31.30
2006,01,31,12,55,29.80
2006,01,31,12,56,28.90
2006,01,31,12,57,31.60
2006,01,31,12,58,26.50
2006,01,31,12,59,24.60
2006,01,31,13,00,30.50
2006,01,31,13,01,33.10
2006,01,31,13,02,27.40
2006,01,31,13,03,27.40
2006,01,31,13,04,29.00
2006,01,31,13,05,34.00
2006,01,31,13,06,31.10
2006,01,31,13,07,27.10
2006,01,31,13,08,31.30
2006,01,31,13,09,21.40
2006,01,31,13,10,26.00
2006,01,31,13,11,26.80
2006,01,31,13,12,20.40
2006,01,31,13,13,31.20
2006,01,31,13,14,17.90
2006,01,31,13,15,23.80
2006,01,31,13,16,30.00
2006,01,31,13,17,21.20
2006,01,31,13,18,25.50
2006,01,31,13,19,22.40
2006,01,31,13,20,20.00
2006,01,31,13,21,23.60
2006,01,31,13,22,25.40
2006,01,31,13,23,19.50
2006,01,31,13,24,28.00
2006,01,31,13,25,30.80
2006,01,31,13,26,31.90
2006,01,31,13,27,28.10
2006,01,31,13,28,24.40
2006,01,31,13,29,26.20
2006,01,31,13,30,33.10
2006,01,31,13,31,20.70
2006,01,31,13,32,23.90
2006,01,31,13,33,24.20
2006,01,31,13,34,28.80
2006,01,31,13,35,30.40
2006,01,31,13,36,33.50
2006,01,31,13,37,29.10
2006,01,31,13,38,34.90
2006,01,31,13,39,29.90
2006,01,31,13,40,31.00
2006,01,31,13,41,26.70
2006,01,31,13,42,35.60
2006,01,31,13,43,27.40
2006,01,31,13,44,27.80
2006,01,31,13,45,25.00
2006,01,31,13,46,24.10
2006,01,31,13,47,32.50
2006,01,31,13,48,19.00
2006,01,31,13,49,25.20
2006,01,31,13,50,25.90
2006,01,31,13,51,33.00
2006,01,31,13,52,27.60
2006,01,31,13,53,18.90
2006,01,31,13,54,24.10
2006,01,31,13,55,27.40
2006,01,31,13,56,33.40
2006,01,31,13,57,29.40
2006,01,31,13,58,30.10
2006,01,31,13,59,34.80
2006,01,31,14,00,25.10
2006,01,31,14,01,25.90
2006,01,31,14,02,22.80
2006,01,31,14,03,19.30
2006,01,31,14,04,32.90
2006,01,31,14,05,27.90
2006,01,31,14,06,29.00
2006,01,31,14,07,31.80
2006,01,31,14,08,29.70
2006,01,31,14,09,39.60
2006,01,31,14,10,35.80
2006,01,31,14,11,30.60
2006,01,31,14,12,27.70
2006,01,31,14,13,30.30
2006,01,31,14,14,42.40
2006,01,31,14,15,35.20
2006,01,31,14,16,29.40
2006,01,31,14,17,36.70
2006,01,31,14,18,27.40
2006,01,31,14,19,26.80
2006,01,31,14,20,23.00
2006,01,31,14,21,36.30
2006,01,31,14,22,42.50
2006,01,31,14,23,36.90
2006,01,31,14,24,49.30
2006,01,31,14,25,30.90
2006,01,31,14,26,34.50
2006,01,31,14,27,32.80
2006,01,31,14,28,33.20
2006,01,31,14,29,27.90
2006,01,31,14,30,29.60
2006,01,31,14,31,35.40
2006,01,31,14,32,36.10
2006,01,31,14,33,31.30
2006,01,31,14,34,37.60
2006,01,31,14,35,25.70
2006,01,31,14,36,33.80
2006,01,31,14,37,35.60
2006,01,31,14,38,24.20
2006,01,31,14,39,31.20
2006,01,31,14,40,41.90
2006,01,31,14,41,32.60
2006,01,31,14,42,43.00
2006,01,31,14,43,40.80
2006,01,31,14,44,32.10
2006,01,31,14,45,39.60
2006,01,31,14,46,40.10
2006,01,31,14,47,32.40
2006,01,31,14,48,48.90
2006,01,31,14,49,36.00
2006,01,31,14,50,41.30
2006,01,31,14,51,28.60
2006,01,31,14,52,36.40
2006,01,31,14,53,49.60
2006,01,31,14,54,33.10
2006,01,31,14,55,36.20
2006,01,31,14,56,43.80
2006,01,31,14,57,40.50
2006,01,31,14,58,38.20
2006,01,31,14,59,35.20
2006,01,31,15,00,34.10
2006,01,31,15,01,33.90
2006,01,31,15,02,36.00
2006,01,31,15,03,36.00
2006,01,31,15,04,46.60
2006,01,31,15,05,39.10
2006,01,31,15,06,41.40
2006,01,31,15,07,32.80
2006,01,31,15,08,39.00
2006,01,31,15,09,43.20
2006,01,31,15,10,37.90
2006,01,31,15,11,36.10
2006,01,31,15,12,38.90
2006,01,31,15,13,41.40
2006,01,31,15,14,30.60
2006,01,31,15,15,31.40
2006,01,31,15,16,35.50
2006,01,31,15,17,37.40
2006,01,31,15,18,32.40
2006,01,31,15,19,38.80
2006,01,31,15,20,46.30
2006,01,31,15,21,39.00
2006,01,31,15,22,38.70
2006,01,31,15,23,38.50
2006,01,31,15,24,31.10
2006,01,31,15,25,35.70
2006,01,31,15,26,39.20
2006,01,31,15,27,33.10
2006,01,31,15,28,36.80
2006,01,31,15,29,46.60
2006,01,31,15,30,40.40
2006,01,31,15,31,30.60
2006,01,31,15,32,43.50
2006,01,31,15,33,44.70
2006,01,31,15,34,41.20
2006,01,31,15,35,44.80
2006,01,31,15,36,45.60
2006,01,31,15,37,41.00
2006,01,31,15,38,34.40
2006,01,31,15,39,32.30
2006,01,31,15,40,30.30
2006,01,31,15,41,29.40
2006,01,31,15,42,22.40
2006,01,31,15,43,27.90
2006,01,31,15,44,35.20
2006,01,31,15,45,36.60
2006,01,31,15,46,25.80
2006,01,31,15,47,39.30
2006,01,31,15,48,43.40
2006,01,31,15,49,38.30
2006,01,31,15,50,43.50
2006,01,31,15,51,41.60
2006,01,31,15,52,39.50
2006,01,31,15,53,21.20
2006,01,31,15,54,26.80
2006,01,31,15,55,46.40
2006,01,31,15,56,43.20
2006,01,31,15,57,24.20
2006,01,31,15,58,27.90
2006,01,31,15,59,53.30
2006,01,31,16,00,33.20
2006,01,31,16,01,33.80
2006,01,31,16,02,37.20
2006,01,31,16,03,36.40
2006,01,31,16,04,34.10
2006,01,31,16,05,44.00
2006,01,31,16,06,39.30
2006,01,31,16,07,44.00
2006,01,31,16,08,25.30
2006,01,31,16,09,32.40
2006,01,31,16,10,48.70
2006,01,31,16,11,28.20
2006,01,31,16,12,38.70
2006,01,31,16,13,49.60
2006,01,31,16,14,37.00
2006,01,31,16,15,31.70
2006,01,31,16,16,35.70
2006,01,31,16,17,37.10
2006,01,31,16,18,31.10
2006,01,31,16,19,41.90
2006,01,31,16,20,41.40
2006,01,31,16,21,25.80
2006,01,31,16,22,42.10
2006,01,31,16,23,41.70
2006,01,31,16,24,49.90
2006,01,31,16,25,51.20
2006,01,31,16,26,39.40
2006,01,31,16,27,47.80
2006,01,31,16,28,32.20
2006,01,31,16,29,31.80
2006,01,31,16,30,39.00
2006,01,31,16,31,28.90
2006,01,31,16,32,28.80
2006,01,31,16,33,42.70
2006,01,31,16,34,36.30
2006,01,31,16,35,50.00
2006,01,31,16,36,50.10
2006,01,31,16,37,30.80
2006,01,31,16,38,34.80
2006,01,31,16,39,45.40
2006,01,31,16,40,35.70
2006,01,31,16,41,36.00
2006,01,31,16,42,35.40
2006,01,31,16,43,40.80
2006,01,31,16,44,38.20
2006,01,31,16,45,34.50
2006,01,31,16,46,31.90
2006,01,31,16,47,38.70
2006,01,31,16,48,38.50
2006,01,31,16,49,30.70
2006,01,31,16,50,31.50
2006,01,31,16,51,26.40
2006,01,31,16,52,48.70
2006,01,31,16,53,36.10
2006,01,31,16,54,35.20
2006,01,31,16,55,44.40
2006,01,31,16,56,31.70
2006,01,31,16,57,29.40
2006,01,31,16,58,54.10
2006,01,31,16,59,37.60
2006,01,31,17,00,36.00
2006,01,31,17,01,39.60
2006,01,31,17,02,32.60
2006,01,31,17,03,23.20
2006,01,31,17,04,30.80
2006,01,31,17,05,33.80
2006,01,31,17,06,32.90
2006,01,31,17,07,38.50
2006,01,31,17,08,35.00
2006,01,31,17,09,32.10
2006,01,31,17,10,39.00
2006,01,31,17,11,45.00
2006,01,31,17,12,30.40
2006,01,31,17,13,27.70
2006,01,31,17,14,29.10
2006,01,31,17,15,32.40
2006,01,31,17,16,33.10
2006,01,31,17,17,38.70
2006,01,31,17,18,41.40
2006,01,31,17,19,48.90
2006,01,31,17,20,43.40
2006,01,31,17,21,40.50
2006,01,31,17,22,45.40
2006,01,31,17,23,36.90
2006,01,31,17,24,32.60
2006,01,31,17,25,39.00
2006,01,31,17,26,28.70
2006,01,31,17,27,39.30
2006,01,31,17,28,37.60
2006,01,31,17,29,41.40
2006,01,31,17,30,40.00
2006,01,31,17,31,32.20
2006,01,31,17,32,37.90
2006,01,31,17,33,56.00
2006,01,31,17,34,58.10
2006,01,31,17,35,53.40
2006,01,31,17,36,43.40
2006,01,31,17,37,38.30
2006,01,31,17,38,27.60
2006,01,31,17,39,31.20
2006,01,31,17,40,36.90
2006,01,31,17,41,35.10
2006,01,31,17,42,36.20